Regional Weather Roundup
Issued by NWS Spokane, WA

Home | Current Version | Previous Version | Text Only | Print | Product List | Glossary On
Versions: 1 2 3 4 5 6 7 8 9 10 11 12 13 14 15 16 17 18 19 20 21 22 23 24 25 26 27 28 29 30 31 32 33 34 35 36 37 38 39 40 41 42 43 44 45 46 47 48 49 50
486
NZUS01 KOTX 271010
RWROTX
EASTERN WASHINGTON/NORTHERN IDAHO ROUNDUP
NATIONAL WEATHER SERVICE, SPOKANE WA
300 AM PDT FRI MAY 27 2016

Note: "fair" indicated few or no clouds below 12,000 feet with no
significant weather and/or obstructions to visibility.

...NORTHEAST WASHINGTON AND NORTHERN IDAHO PANHANDLE...

CITY           SKY/WX    TMP DP  RH WIND       PRES   REMARKS
SPOKANE INTL   CLOUDY    48  39  71 SW20G25   29.92R
SPOKANE DOWNTO CLOUDY    51  40  65 S9        29.94S
COEUR D ALENE  CLOUDY    48  39  71 SW6       29.93R
DEER PARK      CLOUDY    49  41  74 S12       29.93R
SANDPOINT      CLOUDY    52  41  66 SW6       29.91R
BONNERS FERRY  FAIR      54  41  62 SW7       29.87S

...SOUTHEAST WASHINGTON AND SOUTHERN IDAHO PANHANDLE...

CITY           SKY/WX    TMP DP  RH WIND       PRES   REMARKS
WALLA WALLA    CLOUDY    51  38  60 S15       30.05S
PULLMAN/MOSCOW CLOUDY    48  38  68 W16       29.99F
LEWISTON       MOCLDY    53  40  61 S6        29.97S
LOWELL           N/A     52  50  93 CALM      29.97R

...COLUMBIA BASIN...

CITY           SKY/WX    TMP DP  RH WIND       PRES   REMARKS
EPHRATA        MOCLDY    54  35  48 W15       29.94R
MOSES LAKE     PTCLDY    52  39  61 W12       29.97R
TRI CITIES     MOCLDY    56  39  53 SW10      30.03R
HERMISTON        N/A    N/A N/A N/A MISG        N/A
PENDLETON      LGT RAIN  50  35  56 W21G32    30.05R

...EAST SLOPES CASCADES...

CITY           SKY/WX    TMP DP  RH WIND       PRES   REMARKS
THE DALLES     PTCLDY    53  37  54 W16       30.12R
YAKIMA         MOCLDY    52  31  44 NW7       30.02S
ELLENSBURG     CLOUDY    48  33  56 NW18G28   30.03R
STAMPEDE PASS  MIX PCPN  34  30  85 VRB7      30.06S WCI  28
OMAK           PTCLDY    51  36  56 NW7       29.92R

...SOUTHERN BRITISH COLUMBIA...

CITY           SKY/WX    TMP DP  RH WIND       PRES   REMARKS
PENTICTON      MOCLDY    48  37  66 CALM      29.93F
CRANBROOK      LGT RAIN  48  46  93 SE5       29.85F

...WESTERN MONTANA...

CITY           SKY/WX    TMP DP  RH WIND       PRES   REMARKS
MISSOULA       MOCLDY    47  46  97 W5        29.94S

...NEIGHBORING CITIES...

CITY           SKY/WX    TMP DP  RH WIND       PRES   REMARKS
SEATTLE        CLOUDY    50  43  77 S12       30.14S
CALGARY        CLOUDY    48  45  87 N18G28    29.78S



USA.gov is the U.S. government's official web portal to all federal, state and local government web resources and services.